ARJ9734 URSS-UUEE

Flight info

Callsign ARJ9734
Flight time 3h 1m
Altitude 33000
Route IRGID1D IRGID A944 BEMES R227 KZ DCT MOMER/K0826F320 DCT GOLMA N50 LIDUS/K0835F340 N50 OLOPI OLOPI3W
Aircraft A321/M-SDE3FGHIRWY/LB1

Departure

Time 2026-04-30 19:06
Airport Sochi International Airport (URSS)

Arrival

Time 2026-04-30 22:07
Airport Sheremetyevo International Airport (UUEE)
Time Latitude Longitude Altitude Speed Heading
2026-04-30 18:37 43.44490 39.93697 62 ft 0 kts 198°
2026-04-30 19:00 43.44476 39.93703 58 ft 4 kts 139°
2026-04-30 19:00 43.44476 39.93765 56 ft 8 kts 73°
2026-04-30 19:00 43.44525 39.93915 68 ft 10 kts 64°
2026-04-30 19:01 43.44605 39.94148 71 ft 19 kts 65°
2026-04-30 19:01 43.44669 39.94336 66 ft 23 kts 65°
2026-04-30 19:02 43.44790 39.94695 70 ft 17 kts 65°
2026-04-30 19:02 43.44881 39.94956 76 ft 12 kts 65°
2026-04-30 19:03 43.44928 39.95095 84 ft 6 kts 65°
2026-04-30 19:03 43.44956 39.95165 84 ft 4 kts 62°
2026-04-30 19:04 43.44996 39.95291 89 ft 5 kts 82°
2026-04-30 19:04 43.44927 39.95370 92 ft 13 kts 162°
2026-04-30 19:05 43.44879 39.95306 86 ft 5 kts 244°
2026-04-30 19:05 43.44580 39.94430 73 ft 121 kts 244°
2026-04-30 19:06 43.43591 39.91429 641 ft 194 kts 249°
2026-04-30 19:06 43.43201 39.89651 1562 ft 192 kts 258°
2026-04-30 19:06 43.43229 39.85755 2761 ft 229 kts 285°
2026-04-30 19:07 43.45045 39.81670 3947 ft 267 kts 307°
2026-04-30 19:07 43.46213 39.79624 4832 ft 275 kts 307°
2026-04-30 19:08 43.48616 39.75367 6594 ft 286 kts 306°
2026-04-30 19:08 43.51048 39.71029 8489 ft 286 kts 305°
2026-04-30 19:08 43.52269 39.68849 9453 ft 288 kts 304°
2026-04-30 19:09 43.54883 39.64153 9995 ft 335 kts 304°
2026-04-30 19:09 43.56370 39.61487 10007 ft 363 kts 304°
2026-04-30 19:09 43.57955 39.58658 10232 ft 378 kts 305°
2026-04-30 19:10 43.61784 39.53588 11515 ft 393 kts 327°
2026-04-30 19:10 43.67137 39.51641 12805 ft 413 kts 357°
2026-04-30 19:11 43.70007 39.52241 13409 ft 423 kts 13°
2026-04-30 19:11 43.74898 39.56882 14461 ft 443 kts 52°
2026-04-30 19:11 43.76342 39.60649 14935 ft 448 kts 72°
2026-04-30 19:12 43.76852 39.64894 15393 ft 450 kts 92°
2026-04-30 19:12 43.76464 39.69183 15839 ft 451 kts 102°
2026-04-30 19:12 43.76086 39.73507 16269 ft 456 kts 95°
2026-04-30 19:13 43.76647 39.82315 17173 ft 465 kts 78°
2026-04-30 19:13 43.77999 39.91145 18044 ft 473 kts 78°
2026-04-30 19:13 43.78662 39.95611 18443 ft 476 kts 79°
2026-04-30 19:14 43.79278 40.00134 18824 ft 479 kts 80°
2026-04-30 19:14 43.79856 40.04680 19182 ft 482 kts 81°
2026-04-30 19:14 43.80416 40.09268 19529 ft 484 kts 81°
2026-04-30 19:14 43.80977 40.13883 19876 ft 487 kts 81°
2026-04-30 19:15 43.81550 40.18517 20257 ft 490 kts 81°
2026-04-30 19:15 43.82728 40.27843 20925 ft 494 kts 81°
2026-04-30 19:15 43.83329 40.32542 21243 ft 497 kts 80°
2026-04-30 19:16 43.83931 40.37246 21571 ft 500 kts 80°
2026-04-30 19:16 43.84538 40.42019 21876 ft 502 kts 80°
2026-04-30 19:16 43.85729 40.51515 22465 ft 506 kts 81°
2026-04-30 19:17 43.86328 40.56356 22768 ft 509 kts 81°
2026-04-30 19:17 43.87520 40.66026 23316 ft 512 kts 81°
2026-04-30 19:17 43.88089 40.70946 23537 ft 514 kts 84°
2026-04-30 19:18 43.88498 40.79218 23885 ft 516 kts 87°
2026-04-30 19:18 43.88788 40.85813 24196 ft 515 kts 87°
2026-04-30 19:18 43.89007 40.90766 24425 ft 515 kts 87°
2026-04-30 19:19 43.89220 40.95678 24557 ft 511 kts 87°
2026-04-30 19:19 43.89429 41.00567 24713 ft 513 kts 87°
2026-04-30 19:19 43.89849 41.10480 25120 ft 515 kts 87°
2026-04-30 19:20 43.90054 41.15391 25339 ft 515 kts 87°
2026-04-30 19:20 43.90256 41.20297 25564 ft 515 kts 87°
2026-04-30 19:20 43.90658 41.30225 26008 ft 515 kts 88°
2026-04-30 19:21 43.90851 41.35151 26243 ft 515 kts 88°
2026-04-30 19:21 43.91236 41.45130 26666 ft 516 kts 88°
2026-04-30 19:22 43.91605 41.54834 26973 ft 485 kts 88°
2026-04-30 19:22 43.92110 41.68765 27356 ft 484 kts 88°
2026-04-30 19:23 43.92587 41.82933 27759 ft 495 kts 88°
2026-04-30 19:24 43.92899 41.92390 28024 ft 502 kts 88°
2026-04-30 19:24 43.93063 41.97279 28518 ft 494 kts 88°
2026-04-30 19:24 43.93366 42.06654 29491 ft 483 kts 88°
2026-04-30 19:25 43.93808 42.20645 30260 ft 483 kts 88°
2026-04-30 19:26 43.94086 42.29968 30650 ft 483 kts 88°
2026-04-30 19:26 43.94353 42.39268 31078 ft 483 kts 88°
2026-04-30 19:26 43.94488 42.43929 31279 ft 483 kts 88°
2026-04-30 19:27 43.94750 42.53237 31663 ft 483 kts 89°
2026-04-30 19:27 43.94998 42.62545 32040 ft 482 kts 89°
2026-04-30 19:28 43.95085 42.67196 32228 ft 482 kts 90°
2026-04-30 19:28 43.95129 42.76488 32591 ft 482 kts 91°
2026-04-30 19:29 43.95113 42.85787 32957 ft 481 kts 91°
2026-04-30 19:29 43.95113 42.90432 33122 ft 481 kts 91°
2026-04-30 19:30 43.95154 43.04527 33161 ft 493 kts 91°
2026-04-30 19:31 43.95204 43.23891 33150 ft 510 kts 91°
2026-04-30 19:31 43.95198 43.38796 33137 ft 520 kts 91°
2026-04-30 19:32 43.95176 43.48879 33125 ft 525 kts 91°
2026-04-30 19:32 43.95155 43.59065 33119 ft 529 kts 91°
2026-04-30 19:33 43.95133 43.67573 33112 ft 532 kts 91°
2026-04-30 19:33 43.95096 43.77957 33108 ft 536 kts 91°
2026-04-30 19:34 43.95048 43.88267 33101 ft 539 kts 91°
2026-04-30 19:35 43.94959 44.03924 33103 ft 543 kts 91°
2026-04-30 19:35 43.94882 44.14421 33107 ft 545 kts 91°
2026-04-30 19:36 43.94805 44.24908 33531 ft 538 kts 91°
2026-04-30 19:36 43.94768 44.30076 33862 ft 533 kts 91°
2026-04-30 19:36 43.94698 44.40240 34452 ft 522 kts 91°
2026-04-30 19:37 43.94664 44.45248 34728 ft 517 kts 91°
2026-04-30 19:37 43.94631 44.50210 35013 ft 511 kts 91°
2026-04-30 19:37 43.94599 44.55111 35306 ft 506 kts 91°
2026-04-30 19:37 43.94567 44.59971 35601 ft 501 kts 91°
2026-04-30 19:38 43.94536 44.64786 35909 ft 496 kts 92°
2026-04-30 19:38 43.94506 44.69552 36223 ft 490 kts 92°
2026-04-30 19:38 43.94477 44.74236 36543 ft 483 kts 92°
2026-04-30 19:38 43.94450 44.78872 36874 ft 476 kts 92°
2026-04-30 19:39 43.94424 44.83424 37203 ft 468 kts 92°
2026-04-30 19:39 43.94400 44.87906 37530 ft 460 kts 92°
2026-04-30 19:39 43.94379 44.92293 37846 ft 451 kts 92°
2026-04-30 19:39 43.94360 44.96580 38155 ft 441 kts 92°
2026-04-30 19:40 43.94344 45.00799 38398 ft 432 kts 92°
2026-04-30 19:40 43.94330 45.04948 38306 ft 432 kts 92°
2026-04-30 19:40 43.94314 45.09127 37940 ft 439 kts 92°
2026-04-30 19:40 43.94297 45.13414 37642 ft 444 kts 92°
2026-04-30 19:41 43.94264 45.21894 37885 ft 433 kts 92°
2026-04-30 19:41 43.94239 45.30212 37671 ft 433 kts 92°
2026-04-30 19:42 43.94225 45.34425 37396 ft 439 kts 92°
2026-04-30 19:42 43.94211 45.38646 37323 ft 438 kts 92°
2026-04-30 19:42 43.94197 45.42893 37435 ft 432 kts 92°
2026-04-30 19:42 43.94186 45.47059 37498 ft 429 kts 92°
2026-04-30 19:43 43.94176 45.51190 37371 ft 430 kts 92°
2026-04-30 19:43 43.94165 45.55354 37156 ft 434 kts 92°
2026-04-30 19:43 43.94153 45.59553 37036 ft 435 kts 92°
2026-04-30 19:44 43.94132 45.67881 37140 ft 428 kts 92°
2026-04-30 19:44 43.94114 45.76149 36913 ft 430 kts 92°
2026-04-30 19:44 43.94105 45.80321 36785 ft 432 kts 92°
2026-04-30 19:45 43.94096 45.84476 36771 ft 430 kts 92°
2026-04-30 19:45 43.94081 45.92725 36795 ft 426 kts 92°
2026-04-30 19:45 43.94074 45.96821 36685 ft 428 kts 92°
2026-04-30 19:46 43.94068 46.00970 36564 ft 429 kts 92°
2026-04-30 19:46 43.94056 46.09241 36551 ft 426 kts 92°
2026-04-30 19:47 43.94049 46.17444 36460 ft 426 kts 91°
2026-04-30 19:47 43.94043 46.25671 36327 ft 427 kts 91°
2026-04-30 19:48 43.94040 46.33859 36324 ft 424 kts 91°
2026-04-30 19:48 43.94040 46.42067 36197 ft 425 kts 91°
2026-04-30 19:49 43.94043 46.50264 36142 ft 424 kts 91°
2026-04-30 19:49 43.94053 46.62522 36045 ft 423 kts 91°
2026-04-30 19:50 43.94063 46.70702 35987 ft 423 kts 91°
2026-04-30 19:50 43.94076 46.78845 35960 ft 422 kts 91°
2026-04-30 19:51 43.94090 46.86992 35893 ft 422 kts 91°
2026-04-30 19:51 43.94106 46.95132 35860 ft 421 kts 91°
2026-04-30 19:52 43.94122 47.03253 35817 ft 421 kts 91°
2026-04-30 19:52 43.94139 47.11374 35779 ft 421 kts 91°
2026-04-30 19:53 43.94156 47.19989 35749 ft 420 kts 91°
2026-04-30 19:53 43.94171 47.26740 35716 ft 420 kts 91°
2026-04-30 19:54 43.94193 47.34694 35686 ft 420 kts 91°
2026-04-30 19:54 43.94223 47.42939 35670 ft 419 kts 90°
2026-04-30 19:55 43.94435 47.46908 35245 ft 431 kts 73°
2026-04-30 19:55 43.95618 47.50852 34557 ft 441 kts 49°
2026-04-30 19:55 43.97716 47.53842 34413 ft 425 kts 24°
2026-04-30 19:55 44.00326 47.55561 34346 ft 412 kts
2026-04-30 19:56 44.03095 47.55942 34079 ft 393 kts 342°
2026-04-30 19:56 44.05782 47.55279 34011 ft 396 kts 345°
2026-04-30 19:56 44.08595 47.55249 34020 ft 411 kts 355°
2026-04-30 19:56 44.11463 47.55530 34024 ft 415 kts 355°
2026-04-30 19:57 44.14376 47.55820 33837 ft 424 kts 355°
2026-04-30 19:57 44.17334 47.56116 33764 ft 430 kts 355°
2026-04-30 19:57 44.20345 47.56417 33662 ft 437 kts 355°
2026-04-30 19:57 44.23408 47.56730 33559 ft 444 kts 356°
2026-04-30 19:58 44.26509 47.57050 33453 ft 450 kts 356°
2026-04-30 19:58 44.29648 47.57377 33354 ft 456 kts 356°
2026-04-30 19:58 44.32841 47.57708 33159 ft 463 kts 356°
2026-04-30 19:58 44.36065 47.58042 33159 ft 466 kts 356°
2026-04-30 19:59 44.42561 47.58723 33155 ft 470 kts 356°
2026-04-30 20:00 44.52346 47.59074 33155 ft 462 kts 344°
2026-04-30 20:00 44.58604 47.57320 33155 ft 460 kts 340°
2026-04-30 20:01 44.68042 47.54535 33150 ft 458 kts 340°
2026-04-30 20:01 44.74284 47.52692 33157 ft 458 kts 340°
2026-04-30 20:02 44.83634 47.49915 33155 ft 458 kts 340°
2026-04-30 20:03 44.92983 47.47128 33149 ft 458 kts 340°
2026-04-30 20:03 44.99196 47.45283 33148 ft 458 kts 339°
2026-04-30 20:04 45.05425 47.43416 33146 ft 458 kts 339°
2026-04-30 20:05 45.14784 47.40597 33149 ft 458 kts 339°
2026-04-30 20:05 45.24140 47.37775 33151 ft 458 kts 339°
2026-04-30 20:06 45.30374 47.35899 33151 ft 458 kts 339°
2026-04-30 20:06 45.36619 47.34010 33151 ft 458 kts 339°
2026-04-30 20:07 45.42858 47.32120 33152 ft 459 kts 339°
2026-04-30 20:08 45.52225 47.29275 33152 ft 459 kts 339°
2026-04-30 20:08 45.58478 47.27370 33154 ft 459 kts 339°
2026-04-30 20:09 45.64657 47.25384 33157 ft 453 kts 333°
2026-04-30 20:09 45.67564 47.23793 33161 ft 442 kts 325°
2026-04-30 20:09 45.73058 47.19914 33162 ft 441 kts 325°
2026-04-30 20:10 45.81349 47.14084 33162 ft 442 kts 325°
2026-04-30 20:11 45.89620 47.08237 33164 ft 442 kts 324°
2026-04-30 20:11 45.95124 47.04293 33171 ft 441 kts 323°
2026-04-30 20:12 46.03201 46.98009 33169 ft 440 kts 322°
2026-04-30 20:13 46.08575 46.93773 33167 ft 440 kts 323°
2026-04-30 20:13 46.13970 46.89571 33167 ft 441 kts 323°
2026-04-30 20:14 46.19373 46.85366 33169 ft 441 kts 323°
2026-04-30 20:14 46.24888 46.81365 33168 ft 446 kts 326°
2026-04-30 20:15 46.30549 46.77659 33172 ft 447 kts 327°
2026-04-30 20:15 46.36214 46.73953 33170 ft 447 kts 327°
2026-04-30 20:16 46.41818 46.70161 33171 ft 446 kts 326°
2026-04-30 20:16 46.47425 46.66305 33164 ft 447 kts 326°
2026-04-30 20:17 46.53054 46.62450 33165 ft 447 kts 326°
2026-04-30 20:17 46.58693 46.58604 33163 ft 448 kts 326°
2026-04-30 20:18 46.64332 46.54728 33168 ft 448 kts 326°
2026-04-30 20:18 46.69971 46.50851 33170 ft 448 kts 326°
2026-04-30 20:19 46.75591 46.47004 33169 ft 449 kts 327°
2026-04-30 20:19 46.81277 46.43091 33167 ft 449 kts 327°
2026-04-30 20:20 46.86924 46.39183 33168 ft 449 kts 326°
2026-04-30 20:20 46.92577 46.35261 33171 ft 449 kts 327°
2026-04-30 20:21 46.98192 46.31363 33168 ft 450 kts 327°
2026-04-30 20:21 47.03844 46.27410 33174 ft 450 kts 327°
2026-04-30 20:22 47.09502 46.23455 33172 ft 450 kts 327°
2026-04-30 20:22 47.15154 46.19489 33172 ft 451 kts 327°
2026-04-30 20:23 47.20818 46.15500 33176 ft 451 kts 327°
2026-04-30 20:23 47.26486 46.11511 33174 ft 451 kts 327°
2026-04-30 20:24 47.32148 46.07509 33172 ft 452 kts 327°
2026-04-30 20:24 47.37820 46.03491 33177 ft 452 kts 327°
2026-04-30 20:25 47.46324 45.97473 33178 ft 453 kts 327°
2026-04-30 20:26 47.54850 45.91421 33168 ft 453 kts 327°
2026-04-30 20:26 47.63378 45.85331 33173 ft 453 kts 327°
2026-04-30 20:27 47.74758 45.77203 33175 ft 454 kts 327°
2026-04-30 20:28 47.86172 45.69012 33177 ft 455 kts 327°
2026-04-30 20:30 48.00376 45.58757 33175 ft 456 kts 327°
2026-04-30 20:31 48.17558 45.46250 33176 ft 457 kts 327°
2026-04-30 20:32 48.31853 45.35776 33169 ft 458 kts 327°
2026-04-30 20:33 48.40360 45.29291 33163 ft 452 kts 320°
2026-04-30 20:34 48.47787 45.20776 33163 ft 447 kts 315°
2026-04-30 20:35 48.55160 45.12149 33160 ft 448 kts 316°
2026-04-30 20:35 48.62547 45.03480 33160 ft 448 kts 316°
2026-04-30 20:36 48.66640 44.98666 33164 ft 448 kts 316°
2026-04-30 20:37 48.74013 44.89952 33159 ft 449 kts 315°
2026-04-30 20:37 48.78932 44.84114 33161 ft 449 kts 315°
2026-04-30 20:38 48.83850 44.78259 33160 ft 449 kts 315°
2026-04-30 20:38 48.88707 44.72298 33160 ft 448 kts 314°
2026-04-30 20:39 48.95900 44.63207 33160 ft 449 kts 314°
2026-04-30 20:40 49.03138 44.54108 33159 ft 450 kts 314°
2026-04-30 20:40 49.07967 44.48035 33161 ft 450 kts 314°
2026-04-30 20:41 49.15203 44.38880 33149 ft 451 kts 314°
2026-04-30 20:41 49.20026 44.32758 33145 ft 451 kts 314°
2026-04-30 20:42 49.24854 44.26624 33169 ft 451 kts 314°
2026-04-30 20:43 49.32091 44.17393 33160 ft 452 kts 314°
2026-04-30 20:43 49.36897 44.11248 33158 ft 453 kts 314°
2026-04-30 20:44 49.41691 44.05109 33701 ft 441 kts 315°
2026-04-30 20:44 49.44028 44.02110 33910 ft 434 kts 315°
2026-04-30 20:44 49.48609 43.96204 34157 ft 424 kts 315°
2026-04-30 20:45 49.53108 43.90376 34168 ft 424 kts 315°
2026-04-30 20:45 49.57673 43.84470 34165 ft 433 kts 315°
2026-04-30 20:46 49.67053 43.72359 34164 ft 444 kts 315°
2026-04-30 20:47 49.74161 43.63114 34170 ft 446 kts 315°
2026-04-30 20:48 49.81301 43.53809 34185 ft 449 kts 315°
2026-04-30 20:48 49.86082 43.47561 34187 ft 450 kts 315°
2026-04-30 20:49 49.90858 43.41274 34192 ft 451 kts 315°
2026-04-30 20:50 49.98051 43.31800 34195 ft 453 kts 315°
2026-04-30 20:50 50.02858 43.25442 34194 ft 454 kts 315°
2026-04-30 20:51 50.07663 43.19057 34195 ft 455 kts 315°
2026-04-30 20:51 50.14899 43.09426 34200 ft 456 kts 315°
2026-04-30 20:52 50.19736 43.02989 34176 ft 458 kts 315°
2026-04-30 20:53 50.26991 42.93260 34181 ft 459 kts 315°
2026-04-30 20:53 50.31830 42.86742 34183 ft 459 kts 315°
2026-04-30 20:54 50.39102 42.76931 34184 ft 461 kts 315°
2026-04-30 20:55 50.46390 42.67080 34187 ft 462 kts 315°
2026-04-30 20:55 50.51251 42.60482 34189 ft 462 kts 315°
2026-04-30 20:56 50.59004 42.51479 34191 ft 466 kts 322°
2026-04-30 20:57 50.67047 42.42879 34190 ft 466 kts 322°
2026-04-30 20:57 50.72417 42.37106 34197 ft 467 kts 322°
2026-04-30 20:58 50.80463 42.28413 34192 ft 467 kts 322°
2026-04-30 20:58 50.85836 42.22607 34194 ft 468 kts 322°
2026-04-30 20:59 50.93894 42.13872 34192 ft 468 kts 322°
2026-04-30 21:00 51.04624 42.02123 34198 ft 469 kts 322°
2026-04-30 21:01 51.12689 41.93290 34197 ft 469 kts 322°
2026-04-30 21:02 51.20773 41.84392 34195 ft 470 kts 322°
2026-04-30 21:02 51.26143 41.78455 34197 ft 470 kts 322°
2026-04-30 21:03 51.31519 41.72499 34194 ft 470 kts 322°
2026-04-30 21:03 51.36897 41.66524 34197 ft 471 kts 322°
2026-04-30 21:04 51.42266 41.60518 34194 ft 471 kts 322°
2026-04-30 21:04 51.50282 41.51543 34206 ft 471 kts 322°
2026-04-30 21:05 51.55651 41.45513 34191 ft 471 kts 322°
2026-04-30 21:05 51.61024 41.39445 34197 ft 471 kts 322°
2026-04-30 21:06 51.66391 41.33371 34203 ft 472 kts 322°
2026-04-30 21:06 51.71757 41.27301 34200 ft 472 kts 322°
2026-04-30 21:07 51.77127 41.21203 34194 ft 472 kts 322°
2026-04-30 21:07 51.82490 41.15083 34205 ft 472 kts 322°
2026-04-30 21:08 51.87853 41.08949 34201 ft 472 kts 323°
2026-04-30 21:08 51.93209 41.02814 34206 ft 472 kts 322°
2026-04-30 21:09 51.98571 40.96649 34207 ft 472 kts 323°
2026-04-30 21:09 52.03927 40.90479 34204 ft 472 kts 324°
2026-04-30 21:10 52.09632 40.85114 34205 ft 474 kts 329°
2026-04-30 21:10 52.15374 40.79852 34204 ft 474 kts 328°
2026-04-30 21:11 52.21117 40.74566 34205 ft 474 kts 329°
2026-04-30 21:11 52.26855 40.69263 34206 ft 474 kts 328°
2026-04-30 21:12 52.32584 40.63924 34210 ft 474 kts 328°
2026-04-30 21:12 52.38316 40.58581 34210 ft 474 kts 328°
2026-04-30 21:13 52.44045 40.53247 34208 ft 474 kts 329°
2026-04-30 21:13 52.49787 40.47879 34207 ft 474 kts 328°
2026-04-30 21:14 52.55496 40.42527 34207 ft 474 kts 329°
2026-04-30 21:14 52.61260 40.37149 34205 ft 475 kts 329°
2026-04-30 21:15 52.67002 40.31763 34207 ft 475 kts 329°
2026-04-30 21:15 52.72734 40.26357 34208 ft 475 kts 329°
2026-04-30 21:16 52.78436 40.20982 34204 ft 475 kts 329°
2026-04-30 21:16 52.84208 40.15526 34212 ft 475 kts 329°
2026-04-30 21:17 52.89937 40.10085 34211 ft 475 kts 329°
2026-04-30 21:17 52.95667 40.04621 34211 ft 475 kts 329°
2026-04-30 21:18 53.01403 39.99143 34213 ft 475 kts 329°
2026-04-30 21:18 53.06209 39.94545 34211 ft 475 kts 329°
2026-04-30 21:19 53.11906 39.89077 34211 ft 475 kts 329°
2026-04-30 21:19 53.17629 39.83565 34212 ft 476 kts 329°
2026-04-30 21:20 53.23354 39.78017 34210 ft 476 kts 329°
2026-04-30 21:20 53.29121 39.72423 34209 ft 476 kts 329°
2026-04-30 21:21 53.34808 39.66888 34211 ft 476 kts 329°
2026-04-30 21:22 53.43419 39.58556 34213 ft 476 kts 331°
2026-04-30 21:23 53.55299 39.48667 34215 ft 476 kts 334°
2026-04-30 21:23 53.64195 39.41209 34215 ft 476 kts 333°
2026-04-30 21:24 53.70100 39.36105 34216 ft 477 kts 333°
2026-04-30 21:24 53.76011 39.31010 34216 ft 477 kts 333°
2026-04-30 21:25 53.84875 39.23384 34216 ft 477 kts 333°
2026-04-30 21:26 53.93737 39.15736 34217 ft 477 kts 333°
2026-04-30 21:27 54.02604 39.08021 34220 ft 477 kts 333°
2026-04-30 21:27 54.08497 39.02866 34213 ft 476 kts 333°
2026-04-30 21:28 54.17272 38.95170 34087 ft 462 kts 333°
2026-04-30 21:28 54.22866 38.90239 33188 ft 444 kts 333°
2026-04-30 21:29 54.25595 38.87853 32698 ft 438 kts 334°
2026-04-30 21:29 54.33652 38.81025 31242 ft 423 kts 335°
2026-04-30 21:30 54.38869 38.76605 30312 ft 413 kts 335°
2026-04-30 21:31 54.46425 38.70114 28588 ft 400 kts 334°
2026-04-30 21:31 54.51364 38.65854 27450 ft 393 kts 334°
2026-04-30 21:32 54.56208 38.61681 26363 ft 385 kts 334°
2026-04-30 21:32 54.58610 38.59601 26186 ft 384 kts 334°
2026-04-30 21:32 54.60985 38.57538 26213 ft 380 kts 334°
2026-04-30 21:32 54.63339 38.55493 26212 ft 378 kts 334°
2026-04-30 21:33 54.65687 38.53456 26212 ft 375 kts 334°
2026-04-30 21:33 54.70312 38.49435 26214 ft 370 kts 334°
2026-04-30 21:33 54.72603 38.47438 26213 ft 367 kts 334°
2026-04-30 21:34 54.74854 38.45471 26103 ft 368 kts 334°
2026-04-30 21:34 54.79473 38.41454 25741 ft 374 kts 335°
2026-04-30 21:34 54.81803 38.39433 25556 ft 376 kts 335°
2026-04-30 21:35 54.84123 38.37301 25385 ft 379 kts 329°
2026-04-30 21:35 54.86233 38.34538 25219 ft 383 kts 319°
2026-04-30 21:35 54.88111 38.31254 25044 ft 386 kts 316°
2026-04-30 21:35 54.90002 38.27880 24892 ft 388 kts 316°
2026-04-30 21:36 54.91892 38.24515 24733 ft 390 kts 316°
2026-04-30 21:36 54.93787 38.21139 24586 ft 391 kts 316°
2026-04-30 21:37 54.99510 38.10895 24173 ft 397 kts 316°
2026-04-30 21:37 55.01446 38.07413 24025 ft 398 kts 316°
2026-04-30 21:37 55.03379 38.03931 23890 ft 400 kts 316°
2026-04-30 21:37 55.05315 38.00439 23751 ft 401 kts 317°
2026-04-30 21:38 55.07229 37.96974 23590 ft 403 kts 317°
2026-04-30 21:38 55.09192 37.93411 23425 ft 404 kts 317°
2026-04-30 21:38 55.11145 37.89867 23263 ft 405 kts 317°
2026-04-30 21:38 55.13107 37.86314 23102 ft 406 kts 317°
2026-04-30 21:39 55.15049 37.82794 22944 ft 407 kts 317°
2026-04-30 21:39 55.17116 37.79312 22772 ft 406 kts 324°
2026-04-30 21:39 55.19354 37.76427 22616 ft 406 kts 327°
2026-04-30 21:39 55.21669 37.73480 22457 ft 406 kts 327°
2026-04-30 21:40 55.23925 37.70607 22300 ft 407 kts 327°
2026-04-30 21:40 55.26224 37.67675 22142 ft 408 kts 327°
2026-04-30 21:40 55.28547 37.64703 21988 ft 409 kts 327°
2026-04-30 21:40 55.30812 37.61805 21843 ft 410 kts 327°
2026-04-30 21:41 55.33110 37.58860 21682 ft 410 kts 327°
2026-04-30 21:41 55.35419 37.55896 21546 ft 411 kts 326°
2026-04-30 21:41 55.37716 37.52938 21387 ft 411 kts 326°
2026-04-30 21:41 55.40037 37.49945 21236 ft 412 kts 326°
2026-04-30 21:42 55.42376 37.46927 21092 ft 407 kts 326°
2026-04-30 21:42 55.44607 37.44037 20941 ft 389 kts 326°
2026-04-30 21:42 55.46736 37.41271 20811 ft 371 kts 326°
2026-04-30 21:42 55.48766 37.38642 20674 ft 354 kts 328°
2026-04-30 21:43 55.50850 37.36695 20540 ft 335 kts 343°
2026-04-30 21:43 55.53081 37.35808 20386 ft 318 kts 357°
2026-04-30 21:43 55.55268 37.35726 20031 ft 312 kts
2026-04-30 21:43 55.57420 37.35713 19574 ft 309 kts
2026-04-30 21:44 55.59545 37.35698 19114 ft 308 kts
2026-04-30 21:44 55.61708 37.35681 18651 ft 307 kts
2026-04-30 21:44 55.63840 37.35661 18163 ft 306 kts
2026-04-30 21:44 55.65957 37.35643 17656 ft 304 kts
2026-04-30 21:45 55.68032 37.35624 17168 ft 303 kts
2026-04-30 21:45 55.70172 37.35600 16684 ft 301 kts
2026-04-30 21:45 55.72265 37.35573 16212 ft 300 kts
2026-04-30 21:45 55.74349 37.35484 15744 ft 299 kts 358°
2026-04-30 21:46 55.76421 37.35284 15296 ft 298 kts 356°
2026-04-30 21:46 55.78491 37.35038 14859 ft 297 kts 356°
2026-04-30 21:46 55.80542 37.34788 14424 ft 296 kts 356°
2026-04-30 21:46 55.82592 37.34541 13994 ft 295 kts 356°
2026-04-30 21:47 55.84565 37.34309 13542 ft 293 kts 356°
2026-04-30 21:47 55.86596 37.34076 13101 ft 291 kts 356°
2026-04-30 21:47 55.88608 37.33852 12667 ft 289 kts 356°
2026-04-30 21:47 55.90605 37.33631 12240 ft 287 kts 356°
2026-04-30 21:48 55.92601 37.33412 11818 ft 285 kts 356°
2026-04-30 21:48 55.94571 37.33195 11400 ft 283 kts 356°
2026-04-30 21:48 55.96509 37.32946 10981 ft 282 kts 352°
2026-04-30 21:48 55.98415 37.32025 10561 ft 280 kts 337°
2026-04-30 21:49 56.00085 37.30354 10142 ft 279 kts 328°
2026-04-30 21:49 56.01701 37.28501 9889 ft 270 kts 328°
2026-04-30 21:49 56.03274 37.26723 9696 ft 277 kts 328°
2026-04-30 21:49 56.04948 37.24834 9537 ft 292 kts 328°
2026-04-30 21:50 56.06701 37.22853 9371 ft 303 kts 328°
2026-04-30 21:50 56.08464 37.20855 9209 ft 297 kts 328°
2026-04-30 21:50 56.10168 37.18836 9031 ft 291 kts 322°
2026-04-30 21:50 56.11622 37.16371 8849 ft 285 kts 316°
2026-04-30 21:51 56.13008 37.13873 8659 ft 280 kts 316°
2026-04-30 21:51 56.14373 37.11425 8469 ft 276 kts 316°
2026-04-30 21:51 56.15726 37.09006 8281 ft 271 kts 316°
2026-04-30 21:51 56.17161 37.06898 8149 ft 264 kts 332°
2026-04-30 21:52 56.18853 37.05762 7990 ft 257 kts 350°
2026-04-30 21:52 56.20609 37.05670 7908 ft 249 kts
2026-04-30 21:52 56.22241 37.06515 7843 ft 241 kts 21°
2026-04-30 21:52 56.23809 37.07653 7792 ft 244 kts 21°
2026-04-30 21:53 56.25388 37.08789 7740 ft 245 kts 21°
2026-04-30 21:53 56.26870 37.10294 7674 ft 247 kts 41°
2026-04-30 21:53 56.27896 37.12776 7619 ft 251 kts 65°
2026-04-30 21:53 56.28252 37.15893 7552 ft 255 kts 90°
2026-04-30 21:54 56.27837 37.18986 7503 ft 257 kts 112°
2026-04-30 21:54 56.27090 37.21901 7444 ft 256 kts 113°
2026-04-30 21:54 56.26325 37.24800 7378 ft 256 kts 118°
2026-04-30 21:54 56.25274 37.27377 7335 ft 257 kts 133°
2026-04-30 21:55 56.23876 37.29375 7266 ft 258 kts 149°
2026-04-30 21:55 56.22280 37.30627 7198 ft 258 kts 164°
2026-04-30 21:55 56.20543 37.31470 7134 ft 257 kts 164°
2026-04-30 21:55 56.18831 37.32366 7081 ft 256 kts 157°
2026-04-30 21:56 56.17428 37.34212 7019 ft 251 kts 125°
2026-04-30 21:56 56.16754 37.37070 6958 ft 245 kts 94°
2026-04-30 21:56 56.16932 37.40062 6899 ft 241 kts 72°
2026-04-30 21:56 56.17370 37.42960 6833 ft 241 kts 73°
2026-04-30 21:57 56.17804 37.45859 6658 ft 239 kts 73°
2026-04-30 21:57 56.18229 37.48713 6277 ft 236 kts 73°
2026-04-30 21:57 56.18650 37.51520 5816 ft 236 kts 73°
2026-04-30 21:57 56.19075 37.54361 5393 ft 234 kts 74°
2026-04-30 21:58 56.19210 37.57231 5100 ft 229 kts 95°
2026-04-30 21:58 56.18777 37.59904 4897 ft 220 kts 116°
2026-04-30 21:58 56.17894 37.62074 4843 ft 216 kts 134°
2026-04-30 21:58 56.16815 37.64054 4713 ft 224 kts 134°
2026-04-30 21:59 56.16074 37.65417 4619 ft 227 kts 134°
2026-04-30 21:59 56.14971 37.67444 4516 ft 226 kts 134°
2026-04-30 21:59 56.13884 37.69443 4394 ft 222 kts 134°
2026-04-30 22:00 56.11811 37.73245 4219 ft 197 kts 134°
2026-04-30 22:00 56.09993 37.76269 4050 ft 169 kts 150°
2026-04-30 22:00 56.08875 37.76957 3988 ft 173 kts 172°
2026-04-30 22:01 56.07666 37.76855 3825 ft 176 kts 194°
2026-04-30 22:01 56.06492 37.76185 3680 ft 178 kts 199°
2026-04-30 22:01 56.05310 37.75503 3537 ft 179 kts 199°
2026-04-30 22:01 56.04119 37.74824 3380 ft 180 kts 199°
2026-04-30 22:02 56.02949 37.74032 3224 ft 180 kts 210°
2026-04-30 22:02 56.02037 37.72657 3101 ft 163 kts 232°
2026-04-30 22:02 56.01509 37.71001 3031 ft 151 kts 251°
2026-04-30 22:02 56.01231 37.69215 3006 ft 146 kts 256°
2026-04-30 22:03 56.00968 37.67424 3011 ft 147 kts 256°
2026-04-30 22:03 56.00711 37.65672 3010 ft 148 kts 256°
2026-04-30 22:03 56.00446 37.63864 2926 ft 154 kts 256°
2026-04-30 22:03 56.00176 37.62032 2756 ft 150 kts 256°
2026-04-30 22:04 55.99912 37.60236 2561 ft 150 kts 256°
2026-04-30 22:04 55.99647 37.58433 2359 ft 150 kts 256°
2026-04-30 22:04 55.99117 37.54843 1939 ft 151 kts 256°
2026-04-30 22:05 55.98912 37.53455 1775 ft 151 kts 256°
2026-04-30 22:05 55.98891 37.53314 1763 ft 151 kts 256°
2026-04-30 22:05 55.98623 37.51495 1512 ft 151 kts 256°
2026-04-30 22:06 55.98354 37.49681 1296 ft 152 kts 255°
2026-04-30 22:06 55.97814 37.46038 873 ft 152 kts 255°
2026-04-30 22:06 55.97543 37.44215 678 ft 151 kts 255°
2026-04-30 22:07 55.97293 37.42508 646 ft 132 kts 255°
2026-04-30 22:07 55.97093 37.41155 641 ft 86 kts 255°
2026-04-30 22:07 55.96961 37.40481 639 ft 43 kts 232°
2026-04-30 22:07 55.96853 37.40285 639 ft 17 kts 225°
2026-04-30 22:08 55.96819 37.40223 639 ft 0 kts 225°
2026-04-30 22:08 55.96801 37.40193 642 ft 10 kts 224°
2026-04-30 22:08 55.96748 37.40218 641 ft 8 kts 122°
2026-04-30 22:09 55.96753 37.40310 640 ft 8 kts 76°
2026-04-30 22:09 55.96780 37.40495 641 ft 21 kts 75°
2026-04-30 22:09 55.96814 37.40728 642 ft 20 kts 75°
2026-04-30 22:09 55.96846 37.40944 642 ft 14 kts 75°
2026-04-30 22:10 55.96872 37.41109 643 ft 13 kts 74°
2026-04-30 22:10 55.96896 37.41264 643 ft 13 kts 75°
2026-04-30 22:10 55.96913 37.41423 639 ft 12 kts 101°
2026-04-30 22:10 55.96860 37.41515 641 ft 10 kts 122°
2026-04-30 22:11 55.96776 37.41606 639 ft 1 kts 163°
2026-04-30 22:11 55.96770 37.41609 639 ft 0 kts 163°